Weather observations for the past three days for
Jack Edwards Airport
Imperial (Metric)
Date Time (cdt) Wind (mph) Vis. (mi.) Weather Sky Cond. Temperature (ºF) Relative Humidity Wind Chill (°F) Heat Index (°F) Pressure Precipitation (in)
Air Dwpt 6 hour altimeter (in) sea level (mb) 1 hr 3 hr 6 hr
Max. Min.
20 20:35 S 6 G 12 10.00 Fair CLR 80.6 80.6 100% 89 30.05 0.0
20 20:15 S 12 10.00 Mostly Cloudy SCT014 BKN018 80.6 80.6 100% 89 30.05 0.0
20 19:59 S 9 G 15 5.00 Light Rain Fog/Mist BKN014 BKN018 OVC030 82.4 80.6 94% 94 30.04 0.0
20 18:57 SE 5 10.00 Mostly Cloudy BKN019 BKN023 84.2 80.6 89% 98 30.02 0.0
20 16:56 S 8 G 14 10.00 Fair CLR 86 77 75% 97 30.02 0.0
20 14:55 Vrbl 6 10.00 Thunderstorm in Vicinity FEW025 84.2 75.2 74% 92 30.04 0.0
20 13:55 Calm 10.00 Thunderstorm in Vicinity FEW026 FEW037 84.2 80.6 89% 98 30.07 0.0
20 12:55 Vrbl 5 10.00 Thunderstorm in Vicinity CLR 82.4 80.6 94% 94 30.07 0.0
20 11:58 N 6 4.00 Thunderstorm Light Rain FEW019 SCT043 82.4 77 84% 91 30.08 0.0
20 10:56 SW 17 10.00 Thunderstorm in Vicinity CLR 87.8 80.6 79% 105 30.06 0.0
20 09:58 SW 12 10.00 Thunderstorm in Vicinity CLR 87.8 80.6 79% 105 30.06 0.0
20 08:55 S 3 10.00 Thunderstorm in Vicinity FEW075 86 78.8 79% 99 30.06 0.0
20 07:58 SW 7 10.00 Fair CLR 84.2 80.6 89% 98 30.04 0.0
20 06:55 SW 5 10.00 A Few Clouds FEW015 FEW039 82.4 82.4 100% 96 30.01 0.0
20 06:35 SW 9 10.00 Mostly Cloudy FEW015 SCT022 BKN070 82.4 80.6 94% 94 30.01 0.0
20 06:15 SW 6 10.00 A Few Clouds FEW022 82.4 80.6 94% 94 30.02 0.0
20 05:55 SW 5 10.00 Fair CLR 82.4 80.6 94% 94 30.01 0.0
20 05:35 SW 6 10.00 Fair CLR 82.4 80.6 94% 94 30.01 0.0
20 05:15 SW 7 10.00 Fair CLR 82.4 78.8 89% 92 30.01 0.0
20 04:55 SW 8 10.00 Fair CLR 82.4 78.8 89% 92 30.01 0.0
20 04:35 SW 9 10.00 Fair CLR 82.4 78.8 89% 92 30.01 0.0
20 04:15 S 10 10.00 Fair CLR 82.4 78.8 89% 92 30.01 0.0
20 03:35 SW 8 10.00 A Few Clouds FEW020 82.4 78.8 89% 92 30 0.0
20 03:15 S 8 10.00 A Few Clouds FEW022 FEW033 82.4 78.8 89% 92 30 0.0
20 02:55 S 8 10.00 A Few Clouds FEW022 FEW033 82.4 78.8 89% 92 30 0.0
20 02:35 S 9 G 18 10.00 Partly Cloudy SCT022 84.2 80.6 89% 98 30 0.0
20 02:15 S 8 10.00 Partly Cloudy FEW022 FEW070 SCT110 84.2 78.8 84% 96 30 0.0
20 01:55 S 9 10.00 Partly Cloudy FEW024 SCT070 SCT085 82.4 78.8 89% 92 30.01 0.0
20 01:35 S 8 7.00 Light Rain SCT024 SCT033 82.4 78.8 89% 92 30.02 0.0
20 01:15 S 10 8.00 Light Rain BKN023 BKN028 82.4 78.8 89% 92 30.03 0.0
20 00:55 S 8 9.00 Light Rain BKN023 BKN028 BKN050 84.2 80.6 89% 98 30.03 0.0
20 00:35 SE 6 10.00 Partly Cloudy FEW024 FEW029 SCT055 82.4 78.8 89% 92 30.03 0.0
20 00:15 SE 8 10.00 Partly Cloudy FEW024 SCT055 SCT065 82.4 78.8 89% 92 30.04 0.0
19 23:55 SE 6 G 13 10.00 A Few Clouds FEW025 82.4 78.8 89% 92 30.04 0.0
19 23:35 SE 9 10.00 Partly Cloudy SCT025 SCT030 SCT055 82.4 78.8 89% 92 30.04 0.0
19 23:15 SE 6 10.00 Mostly Cloudy SCT024 SCT029 BKN048 82.4 78.8 89% 92 30.04 0.0
19 22:55 Calm 10.00 Mostly Cloudy FEW021 BKN027 BKN050 78.8 78.8 100% 83 30.04 0.0
19 22:35 Calm 10.00 Mostly Cloudy SCT021 SCT027 BKN039 78.8 78.8 100% 83 30.04 0.0
19 22:15 Calm 10.00 Overcast BKN021 BKN026 OVC043 78.8 78.8 100% 83 30.04 0.0
19 21:55 Calm 10.00 Mostly Cloudy BKN024 BKN036 78.8 78.8 100% 83 30.03 0.0 0.11
19 21:35 Calm 10.00 Overcast OVC025 78.8 78.8 100% 83 30.02 0.0
19 21:15 Calm 4.00 Light Rain Fog/Mist FEW003 BKN023 OVC028 78.8 78.8 100% 83 30.02 0.0
19 20:55 SW 8 2.50 Light Rain Fog/Mist OVC028 80.6 78.8 94% 88 30.02 0.0 0.01
19 20:35 Calm 10.00 Light Rain BKN027 BKN050 82.4 77 84% 91 30.01 0.0
19 20:15 Calm 10.00 Mostly Cloudy BKN027 BKN043 BKN050 82.4 78.8 89% 92 30 0.0
19 18:59 Calm 10.00 Mostly Cloudy BKN043 86 77 75% 97 29.99 0.0
19 17:57 Calm 10.00 Fair CLR 84.2 75.2 74% 92 29.99 0.0
19 16:55 S 9 10.00 Fair CLR 86 75.2 70% 95 30.02 0.0
19 15:56 SW 9 10.00 Fair CLR 86 73.4 66% 93 30.03 0.0
19 14:56 S 9 10.00 Fair CLR 84.2 71.6 66% 90 30.01 0.0
19 13:55 Calm 10.00 A Few Clouds FEW013 80.6 77 89% 87 30.02 0.0
19 12:58 SE 7 9.00 A Few Clouds FEW006 78.8 78.8 100% 83 30.03 0.0
19 11:56 SE 8 1.75 Rain Fog/Mist BKN006 77 77 100% 78 30.12 0.0
19 10:56 Calm 2.00 Thunderstorm in Vicinity Rain Fog/Mist VV007 75.2 75.2 100% 73 30.09 0.0
19 09:56 Calm 3.00 Thunderstorm in Vicinity Rain Fog/Mist FEW015 FEW065 75.2 75.2 100% 73 30.08 0.0
19 08:56 Vrbl 5 8.00 Thunderstorm in Vicinity Light Rain FEW065 BKN200 75.2 75.2 100% 73 30.06 0.0
19 07:56 Calm 10.00 A Few Clouds FEW021 75.2 75.2 100% 73 30.03 0.0
19 06:55 W 10 2.00 Thunderstorm in Vicinity Rain BKN004 BKN017 OVC044 75.2 75.2 100% 73 30.04 0.0
19 06:35 NW 8 G 15 1.75 Thunderstorm Light Rain Fog/Mist BKN006 BKN035 OVC045 75.2 75.2 100% 73 30.04 0.0
19 06:15 W 13 1.00 Thunderstorm Heavy Rain Fog/Mist SCT003 BKN019 OVC065 77 77 100% 78 30.03 0.0
19 05:55 SE 10 G 16 4.00 Thunderstorm in Vicinity Rain Fog/Mist FEW005 SCT028 BKN048 77 77 100% 78 30.03 0.0
19 05:35 NE 5 10.00 Thunderstorm in Vicinity FEW025 SCT031 BKN048 77 77 100% 78 30.01 0.0
19 05:15 Calm 10.00 Fair CLR 77 77 100% 78 30 0.0
19 04:55 Calm 10.00 Thunderstorm in Vicinity CLR 77 77 100% 78 30 0.0
19 04:35 Calm 10.00 A Few Clouds FEW033 FEW038 FEW047 77 77 100% 78 30 0.0
19 04:15 Calm 10.00 Fair CLR 77 77 100% 78 30 0.0
19 03:55 Calm 10.00 Fair CLR 78.8 78.8 100% 83 30 0.0
19 03:35 Calm 10.00 A Few Clouds FEW024 FEW043 78.8 78.8 100% 83 30 0.0
19 03:15 Calm 10.00 Fair CLR 77 77 100% 78 30 0.0
19 02:55 Calm 10.00 Partly Cloudy SCT022 BKN029 SCT039 78.8 78.8 100% 83 30 0.0
19 02:35 N 5 10.00 Mostly Cloudy BKN022 BKN031 BKN036 78.8 78.8 100% 83 30.01 0.0
19 02:15 N 6 10.00 A Few Clouds FEW023 78.8 78.8 100% 83 30.01 0.0
19 01:55 N 7 10.00 Fair CLR 78.8 78.8 100% 83 30.01 0.0
19 01:35 NW 5 10.00 A Few Clouds FEW021 78.8 78.8 100% 83 30.01 0.0
19 01:15 N 3 10.00 Partly Cloudy SCT022 SCT028 SCT035 78.8 78.8 100% 83 30.01 0.0
19 00:55 Calm 10.00 Overcast BKN022 BKN027 OVC033 80.6 78.8 94% 88 30.01 0.0
19 00:35 NW 3 10.00 Overcast BKN023 BKN029 OVC040 80.6 78.8 94% 88 30.01 0.0
19 00:15 Calm 10.00 Mostly Cloudy FEW022 SCT028 BKN035 80.6 78.8 94% 88 30.01 0.0
18 23:55 Calm 10.00 Partly Cloudy SCT025 SCT030 SCT035 80.6 80.6 100% 89 30.01 0.0
18 23:35 Calm 10.00 Partly Cloudy SCT026 80.6 80.6 100% 89 30 0.0
18 23:15 Calm 10.00 Fair CLR 80.6 80.6 100% 89 30.01 0.0
18 22:55 Calm 10.00 Mostly Cloudy SCT019 BKN026 80.6 80.6 100% 89 30.01 0.0
18 22:35 Calm 10.00 Mostly Cloudy BKN020 BKN026 80.6 78.8 94% 88 30.01 0.0
18 22:15 W 5 10.00 Mostly Cloudy SCT019 BKN026 82.4 78.8 89% 92 30 0.0
18 21:55 SW 6 10.00 A Few Clouds FEW019 82.4 78.8 89% 92 30 0.0
18 21:35 SW 5 10.00 A Few Clouds FEW021 82.4 78.8 89% 92 30 0.0
18 21:15 SW 5 10.00 A Few Clouds FEW021 82.4 78.8 89% 92 29.99 0.0
18 20:55 SW 5 10.00 Fair CLR 82.4 78.8 89% 92 30 0.0
18 20:35 SW 5 10.00 Fair CLR 82.4 78.8 89% 92 30.01 0.0
18 20:15 W 5 10.00 Fair CLR 82.4 78.8 89% 92 30.01 0.0
18 19:56 W 7 10.00 Partly Cloudy SCT023 84.2 77 79% 94 30.01 0.0
18 18:55 SW 13 10.00 Mostly Cloudy BKN022 BKN027 BKN033 84.2 78.8 84% 96 30.01 0.0
18 17:56 S 8 10.00 Fair CLR 86 75.2 70% 95 29.98 0.0
18 16:56 S 12 G 18 10.00 Fair CLR 87.8 75.2 66% 98 30 0.0
18 15:56 S 10 10.00 Fair CLR 87.8 77 70% 100 30.02 0.0
18 14:57 S 9 10.00 A Few Clouds FEW021 87.8 77 70% 100 30.01 0.0
18 13:56 S 8 10.00 Partly Cloudy SCT021 87.8 80.6 79% 105 30.02 0.0
18 12:56 Vrbl 6 10.00 Partly Cloudy SCT021 86 80.6 84% 102 30.05 0.0
18 11:55 Calm 10.00 A Few Clouds FEW018 FEW025 FEW047 84.2 80.6 89% 98 30.05 0.0
18 10:56 S 10 10.00 A Few Clouds FEW024 FEW042 84.2 80.6 89% 98 30.06 0.0
18 09:55 Calm 10.00 Thunderstorm in Vicinity SCT021 86 80.6 84% 102 30.05 0.0
18 08:56 Vrbl 5 10.00 Fair CLR 84.2 80.6 89% 98 30.06 0.0
18 06:55 N 5 10.00 Partly Cloudy SCT025 SCT040 77 77 100% 78 30.04 0.0
18 06:35 NE 3 10.00 Thunderstorm in Vicinity CLR 77 77 100% 78 30.03 0.0
18 06:15 NE 3 10.00 Thunderstorm in Vicinity CLR 77 77 100% 78 30.03 0.0
18 05:55 N 5 10.00 Thunderstorm in Vicinity CLR 77 77 100% 78 30.03 0.0
18 05:35 Calm 10.00 Fair CLR 77 77 100% 78 30.03 0.0
18 05:15 Calm 10.00 Fair CLR 77 77 100% 78 30.02 0.0
18 04:55 E 5 10.00 A Few Clouds FEW030 77 77 100% 78 30.01 0.0
18 04:35 NE 6 10.00 A Few Clouds FEW029 77 77 100% 78 30.02 0.0
18 04:15 NE 6 10.00 Fair CLR 77 77 100% 78 30.02 0.0
18 03:55 E 5 10.00 Fair CLR 77 77 100% 78 30.01 0.0 0.01
18 03:35 N 5 10.00 Fair CLR 78.8 78.8 100% 83 30 0.0
18 03:15 Calm 10.00 Thunderstorm in Vicinity CLR 77 77 100% 78 29.99 0.0
18 02:55 N 3 10.00 Thunderstorm in Vicinity CLR 78.8 78.8 100% 83 29.99 0.0
18 02:35 N 5 10.00 Thunderstorm in Vicinity CLR 78.8 78.8 100% 83 30 0.0
18 02:15 NW 3 10.00 Thunderstorm in Vicinity CLR 80.6 78.8 94% 88 30.01 0.0
18 01:55 Calm 10.00 Partly Cloudy FEW026 SCT032 SCT043 80.6 78.8 94% 88 30.01 0.0
18 01:35 N 5 9.00 Overcast BKN026 BKN033 OVC060 80.6 80.6 100% 89 30.01 0.0
18 01:15 Calm 10.00 Mostly Cloudy BKN027 BKN032 80.6 78.8 94% 88 30.02 0.0
18 00:55 NW 3 10.00 A Few Clouds FEW027 80.6 78.8 94% 88 30.02 0.0
18 00:35 W 5 10.00 Fair CLR 80.6 80.6 100% 89 30.01 0.0
18 00:15 W 3 10.00 Fair CLR 80.6 80.6 100% 89 30 0.0
17 23:55 Calm 10.00 Fair CLR 80.6 80.6 100% 89 30 0.0
17 23:35 Calm 10.00 Fair CLR 82.4 80.6 94% 94 29.99 0.0
17 23:15 S 5 10.00 Fair CLR 82.4 80.6 94% 94 30 0.0
17 22:55 SW 7 10.00 Fair CLR 80.6 78.8 94% 88 30.01 0.0 0.01
17 22:35 W 6 10.00 Fair CLR 80.6 78.8 94% 88 30.01 0.0
17 22:15 Calm 10.00 Fair CLR 80.6 78.8 94% 88 29.99 0.0
17 21:55 E 6 10.00 Fair CLR 78.8 78.8 100% 83 29.98 0.0
17 21:35 S 3 10.00 Fair CLR 80.6 78.8 94% 88 30 0.0
17 21:15 S 3 10.00 Fair CLR 82.4 78.8 89% 92 30.01 0.0
17 20:55 S 3 10.00 Fair CLR 82.4 78.8 89% 92 30.02 0.0 0.01
Date Time (cdt) Wind (mph) Vis. (mi.) Weather Sky Cond. Air Dwpt Max. Min. Relative Humidity Wind Chill (°F) Heat Index (°F) altimeter (in) sea level (mb) 1 hr 3 hr 6 hr
6 hour
Temperature (ºF) Pressure Precipitation (in)